FW3030 Weather Reports


Display with metric or nautical units.
time (UTC)temp
F
wind
direction
speed
MPH
gust
MPH
rain 1hr
in
rain 24hr
in
rain mn
in
humidity
%
barometer
mb
20240229121604 11 90 1.0 6.0 0.00 0.00 0.00 68 1021.6
20240229120100 10 90 2.0 7.0 0.00 0.00 0.00 67 1021.7
20240229114559 10 61 1.0 9.0 0.00 0.00 0.00 67 1021.9
20240229113108 10 116 1.0 9.0 0.00 0.00 0.00 66 1022.2
20240229111609 10 81 2.0 9.0 0.00 0.00 0.00 66 1022.1
20240229110115 10 105 1.0 4.0 0.00 0.00 0.00 66 1022.1
20240229104559 10 118 1.0 7.0 0.00 0.00 0.00 67 1022.1
20240229103058 10 80 0.0 4.0 0.00 0.00 0.00 67 1022.2
20240229101557 10 106 1.0 5.0 0.00 0.00 0.00 66 1022.4
20240229100101 10 0 2.0 9.0 0.00 0.00 0.00 66 1022.6
20240229094602 10 82 1.0 4.0 0.00 0.00 0.00 67 1022.8
20240229093102 10 90 0.0 3.0 0.00 0.00 0.00 66 1022.8
20240229091559 10 88 0.0 6.0 0.00 0.00 0.00 66 1023.0
20240229090100 10 76 1.0 4.0 0.00 0.00 0.00 67 1023.2
20240229084604 10 0 1.0 5.0 0.00 0.00 0.00 68 1023.5
20240229083105 10 96 1.0 3.0 0.00 0.00 0.00 69 1023.5
20240229081607 10 0 0.0 3.0 0.00 0.00 0.00 69 1023.7
20240229080110 10 98 0.0 3.0 0.00 0.00 0.00 68 1023.9
20240229074611 10 95 0.0 2.0 0.00 0.00 0.00 68 1024.3
20240229073100 10 133 0.0 2.0 0.00 0.00 0.00 66 1024.5
20240229071605 10 0 0.0 2.0 0.00 0.00 0.00 67 1024.5
20240229070106 10 0 0.0 2.0 0.00 0.00 0.00 68 1024.3
20240229064558 9 0 0.0 2.0 0.00 0.00 0.00 69 1024.2
20240229063106 9 0 0.0 1.0 0.00 0.00 0.00 68 1024.1
20240229061611 9 0 0.0 1.0 0.00 0.00 0.00 68 1024.0
20240229060134 9 0 0.0 1.0 0.00 0.00 0.00 67 1024.0
20240229054603 10 0 0.0 2.0 0.00 0.00 0.00 67 1024.1
20240229053107 9 0 0.0 1.0 0.00 0.00 0.00 70 1024.1
20240229051615 9 0 0.0 1.0 0.00 0.00 0.00 70 1024.2
20240229050105 9 0 0.0 0.0 0.00 0.00 0.00 70 1024.3
20240229044613 9 0 0.0 0.0 0.00 0.00 0.00 69 1024.3
20240229043108 9 0 0.0 1.0 0.00 0.00 0.00 69 1024.4
20240229041607 9 0 0.0 0.0 0.00 0.00 0.00 68 1024.4
20240229040108 9 0 0.0 0.0 0.00 0.00 0.00 67 1024.4
20240229034612 9 0 0.0 1.0 0.00 0.00 0.00 67 1024.1
20240229033124 10 0 0.0 0.0 0.00 0.00 0.00 65 1024.2
20240229031624 10 0 0.0 1.0 0.00 0.00 0.00 63 1024.3
20240229030104 10 0 0.0 0.0 0.00 0.00 0.00 61 1024.2
20240229024600 11 0 0.0 1.0 0.00 0.00 0.00 58 1024.4
20240229023108 11 0 0.0 2.0 0.00 0.00 0.00 56 1024.2
20240229021600 12 226 1.0 3.0 0.00 0.00 0.00 55 1024.2
20240229020104 12 0 0.0 3.0 0.00 0.00 0.00 56 1024.1
20240229014558 12 0 0.0 2.0 0.00 0.00 0.00 54 1024.1
20240229013107 12 246 1.0 4.0 0.00 0.00 0.00 53 1024.0
20240229011618 13 265 1.0 3.0 0.00 0.00 0.00 52 1024.1
20240229010135 13 250 0.0 3.0 0.00 0.00 0.00 53 1024.0
20240229004606 13 0 0.0 4.0 0.00 0.00 0.00 51 1023.8
20240229003105 13 274 1.0 4.0 0.00 0.00 0.00 49 1023.3
20240229001610 14 274 2.0 6.0 0.00 0.00 0.00 49 1023.2
20240229000107 14 275 2.0 8.0 0.00 0.00 0.00 47 1023.2
20240228234608 14 229 4.0 10.0 0.00 0.00 0.00 46 1023.0
20240228233111 15 188 3.0 10.0 0.00 0.00 0.00 45 1022.8
20240228231610 15 252 4.0 11.0 0.00 0.00 0.00 44 1022.7
20240228230108 15 325 4.0 10.0 0.00 0.00 0.00 42 1022.5
20240228224617 16 271 4.0 11.0 0.00 0.00 0.00 42 1022.4
20240228223240 16 314 4.0 14.0 0.00 0.00 0.00 40 1022.4
20240228221607 16 5 3.0 14.0 0.00 0.00 0.00 40 1022.3
20240228220059 17 246 3.0 11.0 0.00 0.00 0.00 40 1022.3
20240228214606 17 313 5.0 12.0 0.00 0.00 0.00 40 1022.2
20240228213109 17 222 4.0 15.0 0.00 0.00 0.00 41 1022.0
20240228211614 16 263 5.0 10.0 0.00 0.00 0.00 42 1022.2
20240228210101 17 289 4.0 11.0 0.00 0.00 0.00 41 1022.0
20240228204617 16 277 6.0 14.0 0.00 0.00 0.00 42 1021.8
20240228203156 16 227 4.0 13.0 0.00 0.00 0.00 43 1021.6
20240228201612 16 270 5.0 14.0 0.00 0.00 0.00 43 1021.6
20240228200112 15 259 5.0 12.0 0.00 0.00 0.00 43 1021.5
20240228194604 15 333 5.0 12.0 0.00 0.00 0.00 46 1021.6
20240228193115 15 325 4.0 11.0 0.00 0.00 0.00 46 1021.5
20240228191632 14 220 4.0 12.0 0.00 0.00 0.00 46 1021.7
20240228190109 14 302 5.0 14.0 0.00 0.00 0.00 48 1021.8
20240228184609 14 243 4.0 15.0 0.00 0.00 0.00 48 1021.9
20240228183117 12 251 4.0 13.0 0.00 0.00 0.00 48 1022.1
20240228181600 12 261 4.0 12.0 0.00 0.00 0.00 50 1022.0
20240228180213 12 253 3.0 11.0 0.00 0.00 0.00 51 1022.0
20240228174608 11 348 3.0 11.0 0.00 0.00 0.00 51 1021.9
20240228173112 10 331 3.0 9.0 0.00 0.00 0.00 53 1021.8
20240228171600 9 265 4.0 8.0 0.00 0.00 0.00 53 1021.7
20240228170058 9 319 3.0 9.0 0.00 0.00 0.00 54 1021.7
20240228164604 8 336 4.0 13.0 0.00 0.00 0.00 56 1021.6
20240228163059 7 259 3.0 9.0 0.00 0.00 0.00 60 1021.4
20240228161557 7 334 5.0 10.0 0.00 0.00 0.00 59 1021.6
20240228160100 6 264 3.0 10.0 0.00 0.00 0.00 60 1021.5
20240228154600 5 299 4.0 10.0 0.00 0.00 0.00 61 1021.5
20240228153057 4 319 5.0 11.0 0.00 0.00 0.00 62 1021.3
20240228151600 3 325 4.0 10.0 0.00 0.00 0.00 64 1021.2
20240228150059 2 278 4.0 10.0 0.00 0.00 0.00 65 1020.8
20240228144557 2 275 3.0 13.0 0.00 0.00 0.00 66 1020.7
20240228143057 1 340 2.0 10.0 0.00 0.00 0.00 67 1020.5
20240228141614 1 0 3.0 10.0 0.00 0.00 0.00 69 1020.5
20240228140059 0 227 3.0 9.0 0.00 0.00 0.00 70 1020.2
20240228134559 0 329 4.0 9.0 0.00 0.00 0.00 71 1020.1
20240228133059 0 276 1.0 11.0 0.00 0.00 0.00 72 1019.8
20240228131557 0 339 2.0 10.0 0.00 0.00 0.00 72 1019.7
20240228130058 0 298 3.0 9.0 0.00 0.00 0.00 73 1019.4
20240228124602 0 294 4.0 11.0 0.00 0.00 0.00 73 1019.1
20240228123058 0 324 3.0 8.0 0.00 0.00 0.00 73 1018.8